ONEWEB-0056, 45159

Orbit data source: Space-Track

ONEWEB-0056, 45159 is a payload satellite owned by One Web (UK) in LEO that was launched on Thu, 06 Feb 2020 UTC via a SOYUZ-2-1B launch vehicle from the Tyuratam Missile And Space Complex (TTMTR). Payload-class satellites include a variety of spacecraft equipped with specific instruments for various scientific and technological missions. These include communications satellites like Starlink; space stations such as the ISS; scientific satellites like the Hubble; Earth observation satellites from companies like Planet Labs, Umbra, and HawkEye 360; GPS; miniature CubeSats for education and research; and military/defense satellites.

Loading next visibility...
Identifier
45159, 2020-008AE
Orbit
LEO
Country
Flag of UKUK
Related business
Manufacturer
One Web
Mission
Operational Commercial Communications
Bus & Motor
ARROW, Unknown motor
Mass
148 kg wet, ~140 kg dry
Launch date (UTC)
2020-02-06 (6 years ago)
Launch vehicle
SOYUZ-2-1B
Launch site
Tyuratam Missile And Space Complex (TTMTR)
Object type
Payload
Rocket body
Debris
Shape & HBR
Trap Box + 2 Pan, 6.7 m
Radar Cross Section
3.464 m², Large (>1 m²)

Expand to show TLE details & history
Last TLE update: 1 day ago

TLE from 1 day ago
0 ONEWEB-0056
1 45159U 20008AE  25301.47132650  .00000544  00000-0  15229-2 0  9997
2 45159  87.8769  82.4541 0001577  90.6101 269.5207 13.10374981277837
Epoch: 2025-10-28T11:18Z
TLE epoch observation values (Epoch: 2025-10-28T11:18:42.609Z)
Latitude
-0.00003°
Longitude
-124.28178°
Altitude
1,224.607 km
Speed
7.242 km/s
True Right ascension
05h 29m 48s
True Declination
0° 00' 00"
Sunlit
Object was in full shadow at epoch
Visualization orbit readout
Latitude
Unknown
Longitude
Unknown
Altitude
Unknown
Speed
Unknown
Apparent Right ascension
Unknown
Apparent Declination
Unknown
Sunlit
N/A
Visualization observer readout
Local Sidereal Time
10:05:43
Azimuth
Unknown
Elevation
Unknown
Doppler factor
Unknown
Orbital elements
Apogee altitude
1,220.027 km
Perigee altitude
1,217.631 km
Semi-major axis
7,596.966 km
Eccentricity
0.00016
Inclination
87.8769°
RAAN
82.4541°
Arg. of periapsis
90.6101°
True anomaly
269.50263°
Mean anomaly
269.5207°
Eccentric anomaly
269.51166°
Mean motion
3.2778 °/min
Orbital period
109.83 mins
BSTAR
0.0015229
Loading maneuver chart data...
Computing Atmospheric mass density...
Loading historical data...
Loading historical data...
Loading historical data...
Loading historical data...
Loading historical data...
Loading historical data...
Loading historical data...

Documentation

Showing up to 5 results
|